Regional Weather Roundup
Issued by NWS

Home | Current Version | Previous Version | Text Only | Print | Product List | Glossary Off
Versions: 1 2 3 4 5 6 7 8 9 10 11 12 13 14 15 16 17 18 19 20 21 22 23 24 25 26 27 28 29 30 31 32 33 34 35 36 37 38 39 40 41 42 43 44 45 46 47 48 49 50

000
ASUS43 KOAX 222310
RWRNE

WEATHER ROUNDUP FOR NEBRASKA
NATIONAL WEATHER SERVICE OMAHA NE
500 PM CST THU FEB 22 2018

NOTES: SATELLITE DATA IS BEING USED TO AUGMENT CLOUD COVER ABOVE
       12000 FEET.
       "FAIR" INDICATES FEW OR NO CLOUDS BELOW 12,000 FEET WITH NO
       SIGNIFICANT WEATHER AND/OR OBSTRUCTIONS TO VISIBILITY.


NEZ001>004-019>022-054>056-230000-
NEBRASKA PANHANDLE

CITY           SKY/WX    TMP DP  RH WIND       PRES   REMARKS
SCOTTSBLUFF    PTSUNNY   25  18  74 W3        30.00S
ALLIANCE       PTSUNNY   21  18  88 SW5       29.99S WCI  15
CHADRON        PTSUNNY   22  15  75 CALM      30.03S
GORDON         LGT SNOW  23  19  87 SW5       30.01S VSB 3/4 WCI  16
KIMBALL        CLOUDY    22  15  72 CALM      29.96R
SIDNEY         CLOUDY    25  15  66 S5        29.98S WCI  19
$$

NEZ057>060-069>072-079>082-230000-
SOUTHWEST NEBRASKA

CITY           SKY/WX    TMP DP  RH WIND       PRES   REMARKS
NORTH PLATTE   CLOUDY    23  17  78 CALM      30.08F
IMPERIAL       CLOUDY    24  18  77 SE9       30.05R WCI  14
LEXINGTON      CLOUDY    27  22  80 SW5       30.11S WCI  21
MCCOOK         CLOUDY    23  22  96 SW3       30.10S FOG
OGALLALA       CLOUDY    25  18  75 SE6       30.06R WCI  18
$$

NEZ005>010-023>029-035>040-094-230000-
NORTH CENTRAL NEBRASKA

CITY           SKY/WX    TMP DP  RH WIND       PRES   REMARKS
VALENTINE      CLOUDY    24  18  77 S9        30.09S WCI  14
AINSWORTH      CLOUDY    22  19  91 S7        30.10F WCI  13
BROKEN BOW     CLOUDY    23  19  85 SE5       30.09F WCI  17
O`NEILL        SNOW      22  21  97 CALM      30.15F VSB 1/2
ORD            LGT SNOW  23  20  88 SW3       30.13F FOG
THEDFORD       CLOUDY    23  20  87 S5        30.08F WCI  17
$$

NEZ041-046>049-061>064-073>077-083>087-230000-
SOUTH CENTRAL NEBRASKA

CITY           SKY/WX    TMP DP  RH WIND       PRES   REMARKS
GRAND ISLAND   LGT SNOW  26  23  88 S3        30.15S VSB 3/4
AURORA         LGT SNOW  27  24  89 S3        30.15S
HASTINGS       LGT SNOW  25  23  92 CALM      30.14F FOG
HEBRON         MIX PCPN  30  28  94 CALM      30.16S
HOLDREGE       CLOUDY    25  24  99 S5        30.11S FOG     WCI  19
KEARNEY        LGT SNOW  25  23  93 SE3       30.13S FOG
YORK           LGT SNOW  27  27 100 S6        30.16R WCI  20
$$

NEZ011>018-030>034-042>045-230000-
NORTHEAST NEBRASKA

CITY           SKY/WX    TMP DP  RH WIND       PRES   REMARKS
NORFOLK        CLOUDY    25  23  92 S6        30.14F WCI  18
ALBION         CLOUDY    26  22  85 CALM      30.15S
BLAIR          MIX PCPN  29  28  94 SE5       30.18S WCI  24
COLUMBUS       LGT SNOW  27  23  86 SE6       30.17F FOG     WCI  20
FREMONT        MIX PCPN  28  27  95 SE6       30.18F WCI  22
TEKAMAH        CLOUDY    28  26  92 SE7       30.21S WCI  21
WAYNE          CLOUDY    27  26  96 SE9       30.17S WCI  17
$$

NEZ050>053-065>068-078-088>093-230000-
SOUTHEAST NEBRASKA

CITY           SKY/WX    TMP DP  RH WIND       PRES   REMARKS
LINCOLN        CLOUDY    30  27  88 E7        30.18F WCI  23
OMAHA EPPLEY   FRZ DRZL  30  28  92 SE12      30.20F WCI  20
BEATRICE       CLOUDY    31  30  94 E7        30.15F WCI  24
FALLS CITY     CLOUDY    31  29  92 E9        30.18F WCI  23
NEBRASKA CITY  MIX PCPN  31  31 100 SE3       30.18F
PLATTSMOUTH    CLOUDY    31  29  95 SE9       30.18F WCI  22
$$

NEZ044-045-051>053-067-230000-
OMAHA AREA

CITY           SKY/WX    TMP DP  RH WIND       PRES   REMARKS
OMAHA EPPLEY   FRZ DRZL  30  28  92 SE12      30.20F WCI  20
BLAIR          MIX PCPN  29  28  94 SE5       30.18S WCI  24
FREMONT        MIX PCPN  28  27  95 SE6       30.18F WCI  22
MILLARD        MIX PCPN  31  28  88 E6        30.19F WCI  26
OFFUTT AFB     FRZ RAIN  31  29  92 SE8       30.18F WCI  23
PLATTSMOUTH    CLOUDY    31  29  95 SE9       30.18F WCI  22
WAHOO          MIX PCPN  29  28  93 SE7       30.18F WCI  22
$$




USA.gov is the U.S. government's official web portal to all federal, state and local government web resources and services.